YAOGAN-21

Last updated on Thu Oct 30 2025 00:02:31 GMT+0000 (Coordinated Universal Time)

1 40143U 14053A 25302.54579833 .00011071 00000+0 45197-3 0 9999 2 40143 97.1826 347.7708 0012065 216.9503 143.0905 15.24499674619811
UTC large
Height (km)
Speed (km/s)
/
Latitude / Longitude
Inclination (degrees)
Orbital Period (minutes)
Azimuth
Elevation
Range (km)
Doppler Factor

Next 0 passes for location: London (51.5072 / 0.1276)

Sorry there are no passes over London.